"2009-05-18 00:00:00",895993,2.622,74.12,4.317,0.232,18.43,108.9954,22.31,23.34,16.03,0,111.1,13.13,23.14,36.1
"2009-05-18 00:00:30",895994,1.789,75.48,8.04,0.467,18.44,108.9898,22.3,23.32,16.26,0,111.1,13.13,23.13,37.5
"2009-05-18 00:01:00",895995,1.486,68.44,10.34,0.224,18.36,108.9788,22.27,23.29,16.29,0,111.1,13.13,23.10,30.4
"2009-05-18 00:01:30",895996,1.766,90.7,10.13,0.306,18.36,108.971,22.25,23.29,16.27,0,111.1,13.13,23.08,52.7
"2009-05-18 00:02:00",895997,1.675,85.8,6.977,0.322,18.36,108.969,22.25,23.29,16.28,0,111.1,13.13,23.08,47.8
"2009-05-18 00:02:30",895998,1.693,93.7,9.06,0.203,18.37,108.9617,22.23,23.28,16.33,0,111.1,13.14,23.06,55.7
"2009-05-18 00:03:00",895999,1.471,80.7,14.43,0.44,18.4,108.946,22.19,23.25,16.64,0,111.1,13.13,23.02,42.7
"2009-05-18 00:03:30",896000,1.095,23.76,11.08,0.379,18.51,108.9286,22.14,23.23,16.95,0,111.1,13.13,22.97,345.8
"2009-05-18 00:04:00",896001,1.433,34.21,13.07,0.322,18.43,108.928,22.14,23.2,16.67,0,111.1,13.13,22.97,356.2
"2009-05-18 00:04:30",896002,1.887,54.73,3.136,0.211,18.41,108.9272,22.14,23.18,16.61,0,111.1,13.13,22.97,16.7
"2009-05-18 00:05:00",896003,1.545,41.08,8.87,0.247,18.44,108.9199,22.12,23.14,16.68,0,111.1,13.13,22.95,3.1
"2009-05-18 00:05:30",896004,0.886,33.02,5.932,0.234,18.48,108.8991,22.07,23.15,16.56,0,111.1,13.13,22.90,355.0
"2009-05-18 00:06:00",896005,1.162,51.6,27.52,0.619,18.44,108.8949,22.06,23.11,16.37,0,111.1,13.13,22.89,13.6
"2009-05-18 00:06:30",896006,1.986,110.4,6.8,0.179,18.48,108.8949,22.06,23.09,16.37,0,111.1,13.14,22.89,72.4
"2009-05-18 00:07:00",896007,2.066,91.8,8.2,0.182,18.49,108.8915,22.05,23.07,16.43,0,111.1,13.14,22.88,53.8
"2009-05-18 00:07:30",896008,1.843,76.02,12.28,0.145,18.46,108.8828,22.03,23.06,16.5,0,111.1,13.14,22.85,38.0
"2009-05-18 00:08:00",896009,1.537,95.7,18.39,0.42,18.59,108.8733,22,23.06,16.58,0,111.1,13.14,22.83,57.7
"2009-05-18 00:08:30",896010,0.963,194.4,28.67,0.461,18.54,108.8707,21.99,23.05,16.67,0,111.1,13.14,22.82,156.4
"2009-05-18 00:09:00",896011,0.271,195.6,44.68,0.164,18.54,108.8682,21.99,23.05,16.77,0,111.1,13.14,22.82,157.6
"2009-05-18 00:09:30",896012,0.506,265.3,52.43,0.198,18.52,108.8629,21.97,23.04,16.86,0,111.1,13.14,22.80,227.3
"2009-05-18 00:10:00",896013,0.385,345.1,24.12,0.198,18.7,108.8612,21.97,23.04,16.86,0,111.1,13.14,22.80,307.1
"2009-05-18 00:10:30",896014,0.546,337.5,17.16,0.3,18.56,108.8477,21.94,23.02,16.95,0,111.1,13.14,22.76,299.5
"2009-05-18 00:11:00",896015,0.533,315.2,23.31,0.245,18.42,108.8236,21.87,22.98,16.96,0,111.1,13.14,22.70,277.2
"2009-05-18 00:11:30",896016,0.416,285.2,26.04,0.215,18.39,108.7927,21.79,22.95,16.81,0,111.1,13.14,22.62,247.2
"2009-05-18 00:12:00",896017,0.679,309.8,28.38,0.366,18.38,108.7615,21.71,22.88,16.91,0,111.1,13.14,22.54,271.8
"2009-05-18 00:12:30",896018,0.802,259.6,32.66,0.301,18.31,108.7602,21.71,22.84,16.96,0,111.1,13.14,22.54,221.6
"2009-05-18 00:13:00",896019,1.302,223,6.296,0.286,18.32,108.7447,21.67,22.81,17.25,0,111.1,13.14,22.50,185.0
"2009-05-18 00:13:30",896020,1.385,238.7,16.42,0.186,18.34,108.7209,21.61,22.74,17.37,0,111.1,13.14,22.44,200.7
"2009-05-18 00:14:00",896021,1.192,277.4,10.36,0.167,18.42,108.6988,21.55,22.69,17.36,0,111.1,13.14,22.38,239.4
"2009-05-18 00:14:30",896022,0.606,340.6,35.72,0.278,18.56,108.6728,21.49,22.65,17.61,0,111.1,13.15,22.31,302.6
"2009-05-18 00:15:00",896023,0.754,43.21,11.45,0.29,18.42,108.6651,21.47,22.61,18.14,0,111.1,13.15,22.29,5.2
"2009-05-18 00:15:30",896024,1.758,55.53,5.852,0.37,18.36,108.6704,21.48,22.57,18.29,0,111.1,13.15,22.31,17.5
"2009-05-18 00:16:00",896025,1.318,67.87,8.78,0.145,18.4,108.6718,21.48,22.55,17.73,0,111.1,13.15,22.31,29.9
"2009-05-18 00:16:30",896026,1.93,93.8,15.66,0.264,18.45,108.6756,21.49,22.54,17.5,0,111.1,13.15,22.32,55.8
"2009-05-18 00:17:00",896027,1.168,80,12.08,0.365,18.54,108.6692,21.48,22.52,17.63,0,111.1,13.15,22.30,42.0
"2009-05-18 00:17:30",896028,1.471,72.68,8.15,0.285,18.48,108.6532,21.44,22.5,17.47,0,111.1,13.15,22.26,34.7
"2009-05-18 00:18:00",896029,0.807,94.8,17.31,0.343,18.56,108.6519,21.43,22.46,17.41,0,111.1,13.15,22.26,56.8
"2009-05-18 00:18:30",896030,0.531,184.3,22.39,0.355,18.5,108.6344,21.39,22.45,17.64,0,111.1,13.14,22.21,146.3
"2009-05-18 00:19:00",896031,1.196,193.6,16.24,0.158,18.48,108.6179,21.35,22.41,17.4,0,111.1,13.14,22.17,155.6
"2009-05-18 00:19:30",896032,1.429,151.5,5.153,0.313,18.45,108.6171,21.34,22.37,18.25,0,111.1,13.14,22.17,113.5
"2009-05-18 00:20:00",896033,1.277,129.4,27.46,0.328,18.51,108.6138,21.33,22.35,18,0,111.1,13.14,22.16,91.4
"2009-05-18 00:20:30",896034,1.361,97.7,13.31,0.348,18.52,108.593,21.28,22.33,18.44,0,111.1,13.14,22.11,59.7
"2009-05-18 00:21:00",896035,1.633,110.6,7.38,0.256,18.5,108.5857,21.26,22.31,18.53,0,111.1,13.14,22.09,72.6
"2009-05-18 00:21:30",896036,1.487,111.2,4.842,0.14,18.47,108.5866,21.26,22.28,17.4,0,111.1,13.14,22.09,73.2
"2009-05-18 00:22:00",896037,1.888,126.3,8.71,0.212,18.44,108.5863,21.26,22.27,17.09,0,111.1,13.14,22.09,88.3
"2009-05-18 00:22:30",896038,2.137,134.3,5.662,0.138,18.45,108.581,21.25,22.24,17.17,0,111.1,13.14,22.08,96.3
"2009-05-18 00:23:00",896039,2.17,129.5,1.852,0.296,18.45,108.5666,21.21,22.24,17.31,0,111.1,13.14,22.04,91.5
"2009-05-18 00:23:30",896040,2.437,139.7,4.142,0.133,18.46,108.5642,21.21,22.2,17.36,0,111.1,13.14,22.03,101.7
"2009-05-18 00:24:00",896041,2.389,146.7,3.486,0.108,18.48,108.5605,21.2,22.2,17.53,0,111.1,13.14,22.02,108.7
"2009-05-18 00:24:30",896042,2.461,147.5,7.976,0.186,18.45,108.5605,21.2,22.18,17.53,0,111.1,13.15,22.02,109.5
"2009-05-18 00:25:00",896043,2.825,133.4,2.971,0.313,18.48,108.5608,21.2,22.19,17.84,0,111.1,13.15,22.02,95.4
"2009-05-18 00:25:30",896044,3.085,138.5,1.538,0.128,18.45,108.5608,21.2,22.18,17.5,0,111.1,13.15,22.02,100.5
"2009-05-18 00:26:00",896045,3.11,138.2,2.577,0.18,18.45,108.5608,21.2,22.19,17.45,0,111.1,13.15,22.02,100.2
"2009-05-18 00:26:30",896046,3.114,139.1,2.635,0.136,18.47,108.5608,21.2,22.19,17.83,0,111,13.15,22.02,101.1
"2009-05-18 00:27:00",896047,3.316,138.3,3.111,0.15,18.45,108.5608,21.2,22.19,17.79,0,111,13.15,22.02,100.3
"2009-05-18 00:27:30",896048,3.163,146.5,3.364,0.16,18.48,108.5608,21.2,22.18,17.43,0,111,13.15,22.02,108.5
"2009-05-18 00:28:00",896049,2.905,147.6,2.856,0.201,18.56,108.5608,21.2,22.17,17.31,0,111,13.15,22.02,109.6
"2009-05-18 00:28:30",896050,2.604,150.7,2.956,0.16,18.58,108.5608,21.2,22.19,17.28,0,111,13.15,22.02,112.7
"2009-05-18 00:29:00",896051,2.503,153,9.55,0.372,18.57,108.5608,21.2,22.19,17.07,0,111,13.15,22.02,115.0
"2009-05-18 00:29:30",896052,2.698,143.7,2.607,0.322,18.4,108.5608,21.2,22.19,17.13,0,111,13.15,22.02,105.7
"2009-05-18 00:30:00",896053,2.423,147.1,4.884,0.123,18.38,108.5608,21.2,22.19,17.15,0,111,13.15,22.02,109.1
"2009-05-18 00:30:30",896054,2.445,151.7,11.97,0.16,18.42,108.5606,21.2,22.21,17.2,0,111,13.15,22.02,113.7
"2009-05-18 00:31:00",896055,2.578,171.2,1.236,0.092,18.55,108.5597,21.2,22.19,17.26,0,111,13.15,22.02,133.2
"2009-05-18 00:31:30",896056,2.118,173.9,6.255,0.126,18.5,108.5561,21.19,22.2,17.28,0,111,13.15,22.01,135.9
"2009-05-18 00:32:00",896057,1.872,172.2,11.38,0.102,18.53,108.5493,21.17,22.2,17.27,0,111,13.15,22.00,134.2
"2009-05-18 00:32:30",896058,2.22,177.9,10.13,0.15,18.47,108.5468,21.16,22.19,17.24,0,111,13.15,21.99,139.9
"2009-05-18 00:33:00",896059,2.336,175.7,2.478,0.166,18.47,108.5432,21.15,22.19,17.26,0,111,13.16,21.98,137.7
"2009-05-18 00:33:30",896060,2.355,172.8,3.723,0.163,18.47,108.5417,21.15,22.19,17.14,0,111,13.16,21.98,134.8
"2009-05-18 00:34:00",896061,2.07,160.6,8.59,0.162,18.43,108.5436,21.15,22.19,17.17,0,111,13.16,21.98,122.6
"2009-05-18 00:34:30",896062,2.137,164.8,3.777,0.294,18.44,108.5431,21.15,22.19,17.14,0,111,13.16,21.98,126.8
"2009-05-18 00:35:00",896063,1.938,159.8,7.186,0.274,18.41,108.5502,21.17,22.19,17.14,0,111,13.16,22.00,121.8
"2009-05-18 00:35:30",896064,1.809,148.1,5.103,0.178,18.4,108.5545,21.18,22.19,17.12,0,111,13.16,22.01,110.1
"2009-05-18 00:36:00",896065,1.733,151,6.8,0.154,18.36,108.5562,21.19,22.18,17.17,0,111,13.15,22.01,113.0
"2009-05-18 00:36:30",896066,1.625,165.6,7.824,0.146,18.39,108.5606,21.2,22.18,17.2,0,111,13.15,22.02,127.6
"2009-05-18 00:37:00",896067,1.374,149,5,0.154,18.4,108.561,21.2,22.19,17.22,0,111,13.15,22.03,111.0
"2009-05-18 00:37:30",896068,1.502,161.5,10.84,0.173,18.39,108.5602,21.2,22.2,17.26,0,111,13.15,22.02,123.5
"2009-05-18 00:38:00",896069,1.862,155.6,3.604,0.161,18.38,108.5596,21.2,22.19,17.27,0,111,13.15,22.02,117.6
"2009-05-18 00:38:30",896070,1.934,170.2,6.685,0.191,18.37,108.5605,21.2,22.19,17.34,0,111,13.15,22.02,132.2
"2009-05-18 00:39:00",896071,1.786,170.7,4.209,0.115,18.39,108.5594,21.19,22.19,17.39,0,111,13.15,22.02,132.7
"2009-05-18 00:39:30",896072,1.672,162.6,8.45,0.191,18.34,108.5603,21.2,22.19,17.33,0,111,13.15,22.02,124.6
"2009-05-18 00:40:00",896073,1.762,148.3,13.54,0.274,18.35,108.5623,21.2,22.21,17.24,0,111,13.15,22.03,110.3
"2009-05-18 00:40:30",896074,1.211,163.2,16.35,0.186,18.37,108.5632,21.2,22.21,17.23,0,111,13.15,22.03,125.2
"2009-05-18 00:41:00",896075,1.186,181.5,7.595,0.288,18.33,108.5642,21.21,22.21,17.22,0,111,13.15,22.03,143.5
"2009-05-18 00:41:30",896076,1.615,173.5,4.877,0.269,18.3,108.5666,21.21,22.21,17.24,0,111,13.16,22.04,135.5
"2009-05-18 00:42:00",896077,1.863,182.8,7.703,0.163,18.24,108.5698,21.22,22.22,17.23,0,111,13.16,22.05,144.8
"2009-05-18 00:42:30",896078,1.993,173.5,1.368,0.26,18.3,108.5699,21.22,22.22,17.15,0,111,13.16,22.05,135.5
"2009-05-18 00:43:00",896079,1.761,178,6.547,0.12,18.29,108.5704,21.22,22.23,17.13,0,111,13.16,22.05,140.0
"2009-05-18 00:43:30",896080,1.923,185.7,1.845,0.055,18.32,108.5716,21.23,22.22,17.05,0,111,13.16,22.05,147.7
"2009-05-18 00:44:00",896081,1.905,187.9,1.412,0.123,18.33,108.5715,21.23,22.22,17.02,0,111,13.16,22.05,149.9
"2009-05-18 00:44:30",896082,2.042,183.8,2.398,0.147,18.29,108.5724,21.23,22.22,16.98,0,111,13.16,22.05,145.8
"2009-05-18 00:45:00",896083,1.922,182.6,3.083,0.128,18.32,108.5744,21.23,22.24,16.97,0,111,13.16,22.06,144.6
"2009-05-18 00:45:30",896084,1.967,183.1,2.025,0.09,18.3,108.5752,21.24,22.24,16.93,0,111,13.16,22.06,145.1
"2009-05-18 00:46:00",896085,2.124,185.4,2.645,0.075,18.3,108.5806,21.25,22.24,16.92,0,111,13.16,22.08,147.4
"2009-05-18 00:46:30",896086,2.114,178.2,6.607,0.097,18.31,108.5854,21.26,22.25,16.86,0,111,13.16,22.09,140.2
"2009-05-18 00:47:00",896087,2.273,173.5,2.554,0.132,18.23,108.5879,21.27,22.26,16.74,0,111,13.16,22.09,135.5
"2009-05-18 00:47:30",896088,2.353,177.5,2.636,0.18,18.27,108.5901,21.27,22.25,16.71,0,111,13.16,22.10,139.5
"2009-05-18 00:48:00",896089,2.303,181.3,3.058,0.191,18.27,108.5946,21.29,22.26,16.72,0,111,13.16,22.11,143.3
"2009-05-18 00:48:30",896090,2.078,179.5,1.532,0.059,18.28,108.5963,21.29,22.26,16.72,0,111,13.16,22.12,141.5
"2009-05-18 00:49:00",896091,2.203,178.5,1.933,0.095,18.24,108.5972,21.29,22.26,16.66,0,111,13.16,22.12,140.5
"2009-05-18 00:49:30",896092,2.279,179.5,1.946,0.1,18.22,108.5974,21.29,22.27,16.65,0,111,13.16,22.12,141.5
"2009-05-18 00:50:00",896093,2.412,180.1,1.694,0.074,18.23,108.5974,21.29,22.27,16.56,0,111,13.16,22.12,142.1
"2009-05-18 00:50:30",896094,2.38,178.2,1.273,0.084,18.22,108.5974,21.29,22.27,16.54,0,110.9,13.16,22.12,140.2
"2009-05-18 00:51:00",896095,2.476,180.6,1.715,0.102,18.26,108.5974,21.29,22.27,16.56,0,110.9,13.16,22.12,142.6
"2009-05-18 00:51:30",896096,2.464,179.9,2.3,0.074,18.25,108.5974,21.29,22.27,16.59,0,110.9,13.16,22.12,141.9
"2009-05-18 00:52:00",896097,2.573,179.9,1.754,0.065,18.3,108.5974,21.29,22.29,16.57,0,110.9,13.16,22.12,141.9
"2009-05-18 00:52:30",896098,2.495,178.7,0.693,0.047,18.29,108.5974,21.29,22.29,16.59,0,110.9,13.16,22.12,140.7
"2009-05-18 00:53:00",896099,2.679,181.5,0.937,0.123,18.3,108.5974,21.29,22.3,16.52,0,110.9,13.16,22.12,143.5
"2009-05-18 00:53:30",896100,2.813,184.2,1.168,0.043,18.36,108.5974,21.29,22.3,16.56,0,110.9,13.16,22.12,146.2
"2009-05-18 00:54:00",896101,2.687,183,1.139,0.108,18.39,108.5974,21.29,22.28,16.6,0,110.9,13.16,22.12,145.0
"2009-05-18 00:54:30",896102,2.644,181.4,2.122,0.086,18.38,108.5974,21.29,22.31,16.69,0,110.9,13.16,22.12,143.4
"2009-05-18 00:55:00",896103,2.545,179.2,2.055,0.115,18.37,108.5974,21.29,22.31,16.75,0,110.9,13.16,22.12,141.2
"2009-05-18 00:55:30",896104,2.396,176.8,3.756,0.108,18.34,108.5974,21.29,22.32,16.96,0,110.9,13.16,22.12,138.8
"2009-05-18 00:56:00",896105,2.447,178.8,3.279,0.161,18.36,108.5974,21.29,22.32,17.15,0,110.9,13.16,22.12,140.8
"2009-05-18 00:56:30",896106,2.445,179.5,2.478,0.062,18.32,108.5974,21.29,22.3,16.94,0,110.9,13.16,22.12,141.5
"2009-05-18 00:57:00",896107,2.373,179.9,1.555,0.099,18.35,108.5974,21.29,22.3,16.9,0,110.9,13.16,22.12,141.9
"2009-05-18 00:57:30",896108,2.218,177.7,4.582,0.104,18.35,108.5977,21.29,22.31,17.08,0,110.9,13.16,22.12,139.7
"2009-05-18 00:58:00",896109,2.14,174.2,3.61,0.118,18.39,108.5974,21.29,22.31,17.26,0,110.9,13.16,22.12,136.2
"2009-05-18 00:58:30",896110,2.122,176.4,2.646,0.113,18.39,108.5977,21.29,22.3,17.32,0,110.9,13.16,22.12,138.4
"2009-05-18 00:59:00",896111,2.036,182.3,3.359,0.155,18.4,108.5974,21.29,22.3,17.19,0,110.9,13.16,22.12,144.3
"2009-05-18 00:59:30",896112,2.354,181.2,1.197,0.078,18.37,108.5975,21.29,22.3,16.83,0,110.9,13.16,22.12,143.2
"2009-05-18 01:00:00",896113,2.348,181.6,1.348,0.099,18.38,108.5964,21.29,22.31,16.62,0,110.9,13.16,22.12,143.6
"2009-05-18 01:00:30",896114,2.409,177.8,1.992,0.117,18.4,108.5968,21.29,22.3,16.48,0,110.9,13.16,22.12,139.8
"2009-05-18 01:01:00",896115,2.165,176.1,1.468,0.078,18.42,108.5885,21.27,22.29,16.46,0,110.9,13.16,22.10,138.1
"2009-05-18 01:01:30",896116,2.152,173.2,1.79,0.081,18.45,108.5821,21.25,22.3,16.62,0,110.9,13.16,22.08,135.2
"2009-05-18 01:02:00",896117,2.192,175.7,1.881,0.072,18.44,108.5798,21.25,22.3,16.5,0,110.9,13.16,22.07,137.7
"2009-05-18 01:02:30",896118,2.418,178,1.136,0.083,18.42,108.5752,21.24,22.3,16.42,0,110.9,13.16,22.06,140.0
"2009-05-18 01:03:00",896119,2.276,173.1,3.243,0.157,18.47,108.5746,21.23,22.28,16.95,0,110.9,13.16,22.06,135.1
"2009-05-18 01:03:30",896120,1.983,171.8,2.495,0.089,18.53,108.5676,21.22,22.28,17.68,0,110.9,13.16,22.04,133.8
"2009-05-18 01:04:00",896121,1.837,171.9,3.214,0.182,18.53,108.5665,21.21,22.27,17.35,0,110.9,13.16,22.04,133.9
"2009-05-18 01:04:30",896122,1.846,174.9,3.263,0.105,18.49,108.568,21.22,22.26,17.52,0,110.9,13.17,22.04,136.9
"2009-05-18 01:05:00",896123,2.041,179.2,0.842,0.048,18.52,108.568,21.22,22.26,16.8,0,110.9,13.17,22.04,141.2
"2009-05-18 01:05:30",896124,2.067,176.4,2.038,0.056,18.55,108.572,21.23,22.25,16.52,0,110.9,13.17,22.05,138.4
"2009-05-18 01:06:00",896125,1.979,175.2,1.354,0.075,18.59,108.5717,21.23,22.25,16.41,0,110.9,13.17,22.05,137.2
"2009-05-18 01:06:30",896126,2.177,176.6,1.07,0.081,18.55,108.5735,21.23,22.25,16.36,0,110.9,13.17,22.06,138.6
"2009-05-18 01:07:00",896127,1.996,173.9,1.089,0.068,18.66,108.5727,21.23,22.25,16.39,0,110.9,13.17,22.06,135.9
"2009-05-18 01:07:30",896128,1.922,177.2,2.631,0.115,18.62,108.5734,21.23,22.23,16.38,0,110.9,13.17,22.06,139.2
"2009-05-18 01:08:00",896129,2.001,179.1,1.015,0.068,18.65,108.5676,21.22,22.23,16.35,0,110.9,13.17,22.04,141.1
"2009-05-18 01:08:30",896130,2.125,179.6,0.795,0.056,18.65,108.5603,21.2,22.23,16.34,0,110.9,13.17,22.02,141.6
"2009-05-18 01:09:00",896131,2.103,179.1,2.148,0.127,18.67,108.5551,21.18,22.21,16.36,0,110.9,13.17,22.01,141.1
"2009-05-18 01:09:30",896132,1.794,169.5,1.674,0.048,18.68,108.552,21.18,22.22,16.66,0,110.9,13.17,22.00,131.5
"2009-05-18 01:10:00",896133,1.899,172.6,2.828,0.132,18.72,108.5538,21.18,22.2,16.74,0,110.9,13.17,22.01,134.6
"2009-05-18 01:10:30",896134,1.805,171.9,1.929,0.079,18.7,108.5562,21.19,22.21,16.9,0,110.9,13.17,22.01,133.9
"2009-05-18 01:11:00",896135,1.692,171.3,0.91,0.059,18.68,108.5575,21.19,22.18,16.8,0,110.9,13.17,22.02,133.3
"2009-05-18 01:11:30",896136,1.607,170,0.749,0.04,18.72,108.549,21.17,22.17,16.71,0,110.9,13.17,21.99,132.0
"2009-05-18 01:12:00",896137,1.72,167.6,2.185,0.041,18.75,108.5342,21.13,22.18,16.76,0,110.9,13.17,21.96,129.6
"2009-05-18 01:12:30",896138,1.759,171.2,2.348,0.054,18.74,108.5246,21.11,22.17,16.74,0,110.9,13.17,21.93,133.2
"2009-05-18 01:13:00",896139,1.545,171.2,2.538,0.055,18.84,108.5265,21.11,22.16,16.72,0,110.9,13.17,21.94,133.2
"2009-05-18 01:13:30",896140,1.726,175.1,1.793,0.068,18.77,108.5259,21.11,22.13,16.56,0,110.9,13.17,21.93,137.1
"2009-05-18 01:14:00",896141,1.75,176.1,0.992,0.054,18.79,108.5216,21.1,22.13,16.43,0,110.9,13.17,21.92,138.1
"2009-05-18 01:14:30",896142,1.759,175.5,3.202,0.082,18.84,108.5204,21.1,22.11,16.41,0,110.9,13.17,21.92,137.5
"2009-05-18 01:15:00",896143,1.751,172.8,4.71,0.105,18.8,108.5048,21.05,22.1,16.49,0,110.9,13.17,21.88,134.8
"2009-05-18 01:15:30",896144,1.598,165.2,2.404,0.071,18.71,108.4994,21.04,22.1,16.62,0,110.9,13.17,21.87,127.2
"2009-05-18 01:16:00",896145,1.668,163.9,4.36,0.08,18.75,108.4988,21.04,22.07,16.72,0,110.9,13.17,21.86,125.9
"2009-05-18 01:16:30",896146,1.653,164.7,2.038,0.059,18.77,108.4975,21.04,22.06,16.6,0,110.9,13.18,21.86,126.7
"2009-05-18 01:17:00",896147,1.645,167.1,1.46,0.049,18.78,108.48,20.99,22.05,16.58,0,110.9,13.18,21.82,129.1
"2009-05-18 01:17:30",896148,1.697,167.4,1.545,0.088,18.83,108.4674,20.96,22.03,16.54,0,110.9,13.18,21.78,129.4
"2009-05-18 01:18:00",896149,1.705,168.7,1.082,0.033,18.82,108.4654,20.95,22.02,16.55,0,110.9,13.18,21.78,130.7
"2009-05-18 01:18:30",896150,1.786,161.9,3.283,0.126,18.78,108.4654,20.95,21.99,16.6,0,110.9,13.18,21.78,123.9
"2009-05-18 01:19:00",896151,1.813,168,3.108,0.147,18.84,108.457,20.93,21.99,16.58,0,110.9,13.18,21.76,130.0
"2009-05-18 01:19:30",896152,1.688,164,2.994,0.16,18.81,108.437,20.88,21.97,16.55,0,110.9,13.18,21.71,126.0
"2009-05-18 01:20:00",896153,1.655,164.9,1.245,0.088,18.85,108.4317,20.87,21.95,16.53,0,110.9,13.18,21.69,126.9
"2009-05-18 01:20:30",896154,1.614,161.8,2.596,0.049,18.74,108.4317,20.87,21.93,16.54,0,110.9,13.18,21.69,123.8
"2009-05-18 01:21:00",896155,1.699,159.4,3.675,0.138,18.84,108.4292,20.86,21.92,16.53,0,110.9,13.18,21.69,121.4
"2009-05-18 01:21:30",896156,1.834,163,2.7,0.074,18.88,108.4075,20.81,21.91,16.52,0,110.9,13.18,21.63,125.0
"2009-05-18 01:22:00",896157,1.973,158.1,1.621,0.123,18.86,108.3983,20.78,21.88,16.55,0,110.9,13.18,21.61,120.1
"2009-05-18 01:22:30",896158,1.664,158.4,1.382,0.058,18.74,108.398,20.78,21.88,16.56,0,110.9,13.18,21.61,120.4
"2009-05-18 01:23:00",896159,1.588,160.4,1.59,0.041,18.76,108.3983,20.78,21.86,16.56,0,110.9,13.18,21.61,122.4
"2009-05-18 01:23:30",896160,1.623,163.2,3.059,0.057,18.78,108.3847,20.75,21.83,16.59,0,110.9,13.18,21.57,125.2
"2009-05-18 01:24:00",896161,1.85,170.4,4.099,0.094,18.85,108.3698,20.71,21.83,16.6,0,110.9,13.18,21.53,132.4
"2009-05-18 01:24:30",896162,1.822,167.6,1.422,0.073,18.88,108.3713,20.71,21.8,16.62,0,110.9,13.18,21.54,129.6
"2009-05-18 01:25:00",896163,1.722,166.1,1.211,0.044,18.88,108.3743,20.72,21.78,16.64,0,110.9,13.18,21.54,128.1
"2009-05-18 01:25:30",896164,1.762,165.3,1.999,0.097,18.87,108.3715,20.71,21.78,16.64,0,110.9,13.18,21.54,127.3
"2009-05-18 01:26:00",896165,1.67,164.3,2.718,0.06,18.82,108.3602,20.68,21.76,16.68,0,110.9,13.19,21.51,126.3
"2009-05-18 01:26:30",896166,1.722,168.1,1.892,0.074,18.87,108.3567,20.67,21.75,16.67,0,110.9,13.18,21.50,130.1
"2009-05-18 01:27:00",896167,1.966,170.6,1.752,0.051,18.97,108.3576,20.68,21.72,16.69,0,110.9,13.18,21.50,132.6
"2009-05-18 01:27:30",896168,1.997,172.1,1.331,0.057,18.96,108.356,20.67,21.7,16.7,0,110.9,13.18,21.50,134.1
"2009-05-18 01:28:00",896169,2.047,172,1.111,0.051,19.01,108.3439,20.64,21.7,16.73,0,110.9,13.18,21.47,134.0
"2009-05-18 01:28:30",896170,2.062,170,1.519,0.055,18.97,108.3277,20.6,21.68,16.75,0,110.9,13.18,21.42,132.0
"2009-05-18 01:29:00",896171,2.184,169.1,1.005,0.04,18.88,108.3251,20.59,21.68,16.79,0,110.9,13.18,21.42,131.1
"2009-05-18 01:29:30",896172,2.311,169,1.707,0.069,18.85,108.3285,20.6,21.64,16.82,0,110.9,13.18,21.43,131.0
"2009-05-18 01:30:00",896173,2.349,171.2,1.511,0.074,18.86,108.3281,20.6,21.63,16.89,0,110.8,13.18,21.43,133.2
"2009-05-18 01:30:30",896174,2.435,171.3,1.669,0.095,18.9,108.31,20.56,21.62,17.04,0,110.8,13.18,21.38,133.3
"2009-05-18 01:31:00",896175,2.567,174.2,0.98,0.063,18.92,108.3004,20.53,21.61,17.26,0,110.8,13.18,21.35,136.2
"2009-05-18 01:31:30",896176,2.644,178,1.247,0.035,18.96,108.2996,20.53,21.59,17.15,0,110.8,13.18,21.35,140.0
"2009-05-18 01:32:00",896177,2.757,179.5,0.683,0.086,18.97,108.2996,20.53,21.57,16.91,0,110.8,13.19,21.35,141.5
"2009-05-18 01:32:30",896178,2.835,179.9,0.823,0.086,18.97,108.2996,20.53,21.56,16.8,0,110.8,13.19,21.35,141.9
"2009-05-18 01:33:00",896179,2.667,180.1,1.515,0.066,18.99,108.2912,20.51,21.56,16.77,0,110.8,13.19,21.33,142.1
"2009-05-18 01:33:30",896180,2.627,182,2.181,0.129,18.95,108.272,20.46,21.55,16.83,0,110.8,13.2,21.28,144.0
"2009-05-18 01:34:00",896181,2.509,187.5,2.598,0.121,18.94,108.2659,20.44,21.52,17.01,0,110.8,13.2,21.27,149.5
"2009-05-18 01:34:30",896182,2.648,183.9,1.55,0.041,18.98,108.2659,20.44,21.53,17.22,0,110.8,13.2,21.27,145.9
"2009-05-18 01:35:00",896183,2.604,187.4,2.457,0.086,19.01,108.2659,20.44,21.5,17.4,0,110.8,13.2,21.27,149.4
"2009-05-18 01:35:30",896184,2.578,185.1,3.168,0.099,19,108.2659,20.44,21.5,17.24,0,110.8,13.2,21.27,147.1
"2009-05-18 01:36:00",896185,2.496,183.5,1.172,0.057,18.99,108.2656,20.44,21.49,17.17,0,110.8,13.2,21.26,145.5
"2009-05-18 01:36:30",896186,2.457,184.2,1.681,0.154,19,108.258,20.42,21.47,17.04,0,110.8,13.2,21.24,146.2
"2009-05-18 01:37:00",896187,2.561,185.3,1.403,0.079,19,108.2462,20.39,21.47,17.08,0,110.8,13.2,21.21,147.3
"2009-05-18 01:37:30",896188,2.53,185.8,0.825,0.044,19,108.2392,20.37,21.45,17.39,0,110.8,13.2,21.20,147.8
"2009-05-18 01:38:00",896189,2.499,184.8,0.554,0.047,18.99,108.236,20.37,21.43,17.55,0,110.8,13.2,21.19,146.8
"2009-05-18 01:38:30",896190,2.486,184,0.87,0.058,18.96,108.2349,20.36,21.44,17.65,0,110.8,13.2,21.19,146.0
"2009-05-18 01:39:00",896191,2.545,183.8,1.062,0.088,19,108.2349,20.36,21.44,17.61,0,110.8,13.2,21.19,145.8
"2009-05-18 01:39:30",896192,2.578,183.3,0.779,0.06,19,108.2361,20.37,21.41,17.53,0,110.8,13.2,21.19,145.3
"2009-05-18 01:40:00",896193,2.58,184,1.41,0.074,19.01,108.2385,20.37,21.41,17.52,0,110.8,13.2,21.19,146.0
"2009-05-18 01:40:30",896194,2.609,183,0.542,0.052,19,108.23,20.35,21.39,17.51,0,110.8,13.2,21.17,145.0
"2009-05-18 01:41:00",896195,2.528,183.7,0.844,0.085,18.99,108.2184,20.32,21.41,17.55,0,110.8,13.2,21.14,145.7
"2009-05-18 01:41:30",896196,2.469,186.5,2.36,0.115,18.98,108.2172,20.32,21.39,17.57,0,110.8,13.2,21.14,148.5
"2009-05-18 01:42:00",896197,2.312,188.9,1.721,0.092,18.94,108.2121,20.3,21.4,17.55,0,110.8,13.2,21.13,150.9
"2009-05-18 01:42:30",896198,2.198,192.2,1.388,0.04,18.92,108.2178,20.32,21.37,17.59,0,110.8,13.2,21.14,154.2
"2009-05-18 01:43:00",896199,2.337,187.5,3.845,0.132,18.91,108.2258,20.34,21.36,17.58,0,110.8,13.2,21.16,149.5
"2009-05-18 01:43:30",896200,2.395,184.5,1.519,0.07,18.96,108.2261,20.34,21.35,17.58,0,110.8,13.2,21.16,146.5
"2009-05-18 01:44:00",896201,2.175,188.1,2.629,0.094,18.98,108.2295,20.35,21.35,17.58,0,110.8,13.2,21.17,150.1
"2009-05-18 01:44:30",896202,2.133,190.7,1.547,0.045,19.01,108.2206,20.33,21.34,17.57,0,110.8,13.2,21.15,152.7
"2009-05-18 01:45:00",896203,2.179,188.7,1.587,0.089,19.02,108.2095,20.3,21.32,17.53,0,110.8,13.2,21.12,150.7
"2009-05-18 01:45:30",896204,2.236,194.7,1.242,0.063,18.94,108.2036,20.28,21.31,17.54,0,110.8,13.2,21.10,156.7
"2009-05-18 01:46:00",896205,2.299,196.5,1.126,0.076,18.95,108.2011,20.28,21.3,17.52,0,110.8,13.2,21.10,158.5
"2009-05-18 01:46:30",896206,2.124,201.9,1.345,0.058,19.01,108.2008,20.27,21.3,17.5,0,110.8,13.2,21.10,163.9
"2009-05-18 01:47:00",896207,2.048,199.6,1.586,0.056,19.09,108.2011,20.28,21.29,17.46,0,110.8,13.2,21.10,161.6
"2009-05-18 01:47:30",896208,2.186,196.9,1.141,0.058,18.91,108.2011,20.28,21.28,17.45,0,110.8,13.2,21.10,158.9
"2009-05-18 01:48:00",896209,2.245,194.4,1.275,0.036,18.9,108.1947,20.26,21.27,17.43,0,110.8,13.2,21.08,156.4
"2009-05-18 01:48:30",896210,2.222,196.1,1.193,0.044,18.88,108.1809,20.22,21.26,17.44,0,110.8,13.2,21.05,158.1